Timeline UpdatesTrip UpdatesNews PostsPvt Posts♥♥Travel TipsAdmin PostsConv PostsFollowed PostsChat RequestsBlog PostsPNR Posts

Disclaimer
Search
 
 
Tue Oct 21, 2014 04:20:26 ISTHomeTrainsΣChainsAtlasPNRForumGalleryNewsFAQTripsMembersLoginFeedback
No Recent News for this Train
Other Trains in the News **new
Latest...
-
Wed Oct 01, 2014 (05:31AM)
⇐ Return Journey: Train# 54642

54641/Delhi Firozpur Passenger (UnReserved)

Time-Table HAS CHANGED.
Oct 01 (5:33AM)
Change Departure Station:
Change Arrival Station:
Post a Train Travel TipPost a Train Travel Tip **new
Post a Comment/Question/Picture/VideoPost a Comment/Question/Picture/Video
Pantry/Catering
✕ NO Pantry Car
✕ NO Catering
RSA - Rake Sharing
54641, 54642, 14629, 14630, 14601 and 14602 has RSA.
Rake/Coach Composition
LOCO-SLRD-GS-GS-GS-GS-GS-GS-GS-GS-GS-GS-GS-GS-GS-GS-SLRD
Loco
TKD WDP-1
News    PNR    Forum    Time-Table    Availability    Fare Chart    Map    Arr/Dep History    Trips    Gallery    ΣChains    X/O    Timeline    
Travel Time: 10h 10m    42 halts    Distance: 316 km    Avg Speed: 31 km/hr
Type: Passenger
Zone: NR/Northern
Departs @ 09:15 (Avg 39m late)
Platform# ???
SMTWTFS
Rohtak Junction/ROK 
Arrives @ 19:25 (Avg 2m late)
Platform# 1
SMTWTFS
Firozpur Cantt. Junction/FZR 

42 halts. 43 intermediate Stations between Rohtak Junction and Firozpur Cantt. Junction

Show ALL intermediate Stations  Show Old Time-Table

#TrkCodeStation NameX/OArrivesAvgDepartsAvgHaltPFDay#KmSpeedElevZoneAddress
1/==/DLIOld Delhi Junction (16)  -07:10+221-70.013219mNRNear Chandni Chowk Metro Station, Delhi NCT
2/==/DKZDelhi KishanGanj (2)  07:23+707:25+72m--1-67.234220mNRSarai Rohilla, Delhi NCT
3/==/VVKPVivekanand Puri Halt (2)  07:30 07:28-07:31 07:29-1m--1-65.518223mNRSarai Rohilla, Delhi NCT
4/==/DBSIDayabasti (2)  07:35 07:33+707:36 07:34+71m--1-64.335225mNRZakhira, Delhi NCT
5/==/SSBShakur BastiX  07:42 07:41+807:44 07:43+92m--1-60.242216mNRPitampura, Delhi NCT
6/==/MGLPMangolpuri  07:49-07:51 07:50-2 1m--1-55.939217mNROutter Ring Rd, Delhi NCT
7/==/NNONangloiX  07:56 07:55+2007:57 07:56+201m--1-52.743219mNRJJ Colony No 1, Delhi NCT
8/==/MQCMundka  08:02 08:00-08:03 08:01-1m--1-49.936215mNRMundka, Delhi NCT
9/==/GHEGhevraX  08:08 08:06+2208:09 08:08+241 2m--1-46.966214mNRGhevra, Delhi NCT
10/==/BGZBahadurgarhX  08:14+2608:15+271m--1-40.260220mNRBahadurgarh, Haryana
11/==/ASEAsaudah  08:21 08:23+3308:22 08:24+341m--1-32.252216mNRDelhi-Rohtak Corridor, Haryana
12/==/ROHNRohed Nagar HaltX  08:29 08:30-08:30 08:31-1m--1-26.946220mNRDelhi-Rohtak Corridor, Haryana
13/==/SPZSampla  08:37+3708:38+371m--1-22.335222mNRSampla, Haryana
14/==/ISMIsmaila HaryanaX  08:44-08:45-1m--1-18.859221mNRNational Highway 10, Haryana
15/==/KRZKharawar  08:52+3708:53+371m--1-11.970222mNRKharawar, Haryana
16/==/ABOAsthal Bohar Junction (4)X  08:58+4009:00+402m--1-6.137223mNRRohtak, Haryana
17|--|ROKRohtak Junction (3)»X  09:10+3809:15+395m--10.063220mNRRohtak, Haryana
18|==|SMFSamar Gopalpur  09:25+4409:26+441m--110.666223mNRNH 71, Haryana
19|==|KHVKarainthi  09:33+4509:34+451m--118.333222mNRNH 71, Haryana
20|==|KZHKila ZafargarhX  09:48+4409:49+441m--126.054223mNRNH 71, Haryana
21|==|JNAJulana  09:55+4609:56+471m--131.445226mNRJulana, Haryana
22|==|JJTJai Jai Wanti  10:04+4710:05+471m--137.562227mNRJind, Haryana
23|==|KIUKinanaX  10:12+4810:13+481m--144.736225mNRBrarkhera, Haryana
24|==|BSPHBishanpur HaryanaX  10:22+4710:23+471m--150.019226mNRBishanpur, Haryana
25|==|JINDJind Junction (3)  10:45+3211:00+2615m--157.161222mNRJind 126102, Haryana
26|==|BZOBarsola  11:09+3511:10+351m--166.258224mNRDistrict Jind, Haryana
27|==|UCAUchana  11:20+3511:21+361m--175.853225mNRDistrict Jind, Haryana
28|==|GSOGhaso  11:30+3911:31+391m--183.822231mNRDistrict Jind, Haryana
29|==|NRWNarwana Junction (4)  11:43 11:51+3211:50 11:53+307 2m--191.051235mNRWay to Narwana, Haryana
30|==|DHYDharodi  11:57 12:02+3511:58 12:03+351m--198.654233mNRMDR 111, Haryana
31|==|DTNDhamtan Sahib  12:06 12:11+3412:07 12:12+341m--1105.842234mNRJind District, Haryana
32|==|KLWNKalwan new halt!!  12:18-12:19-1m--1110.055229mNRMDR 111, Haryana
33|==|TUNTohana (2)  12:21 12:26+3112:22 12:27+321m--1116.432232mNRTohana, Haryana
34|==|HMQHimmatpura  12:29 12:34+3212:30 12:35+321m--1120.234228mNRTohana, Haryana
35|-=|JHLJakhal JunctionX  12:50+3013:05+2415m--1128.762225mNRJakhal, Haryana
36!==!KAGRKagangarh new halt!!  13:14-13:15-1m--1137.943226mNRMDR 102, Punjab
37!==!BRZBareta  13:22+2213:23+241m--1142.951223mNRBareta, Punjab
38!==!DTWDatewas  13:32-13:33-1m--1150.658225mNRBareta, Punjab
39!==!BLZBudhlada  13:41+2213:42+251m--1158.352223mNRBudhlada, Punjab
40!==!NPXNarindarpura  13:51+2613:52+261m--1166.063224mNRMansa, Punjab
41!==!MSZMansa  14:00+2214:01+231m--1174.429222mNRMansa, Punjab
42!==!SSZSadda Singhwala (1)  14:14+2614:15+261m11180.628216mNRState Highway 12A, Punjab
43!==!KTKLKotli Kalan  14:20-14:21-1m--1183.076219mNRState Highway 12A, Punjab
44!==!MAURMaur  14:29+2914:30+311m--1193.134220mNRMaur Mandi, Punjab
45!==!MASKMaisar KhanaX  14:45+2814:46+281m--1201.553215mNRState Highway 12A, Punjab
46!==!KTFKot Fatteh  14:54+2914:55+291m--1208.672213mNRBathinda, Punjab
47!==!KZWKatar Singhwala  15:04+2915:05+291m--1219.422211mNRState Highway 17, Punjab
48!==!BTIBathinda Junction (6)X  15:30+1617:15 17:05+4105 95m51228.667208mNRBathinda, Punjab
49|--|GNAGoneana Bhai Jagta (3)  17:26 17:16+717:28 17:18+92m--1240.949206mNRGoniana, Punjab
50|--|CBXChand BhanX  17:37 17:27+717:38 17:28+111m--1248.358211mNRJaitu, Punjab
51|--|GJUTGangsar Jaitu (3)  17:45 17:35+1217:47 17:37+142m--1255.157207mNRJaitu, Punjab
52|--|AJTMAjitgill Matta (1)  17:52 17:42-17:53 17:43-1m11259.841209mNRKotkapura Jaitu Rd, Punjab
53|--|RLSRomana Albel Singh (1)  17:58 17:48+1517:59 17:49+171m11263.255208mNRKotkapura Jaitu Rd, Punjab
54|--|KKPKot Kapura Junction (3)  18:04 17:58+1518:08 18:02+154m11271.4630mNRKotkapura, Punjab
55|--|GZSGiani Zail Singh SandhwanX  18:16 18:06+2018:18 18:08+212m--1275.564210mNRDistt Faridkot, Punjab
56|--|FDKFaridkot (3)  18:31 18:16+1918:33 18:18+222m--1284.152202mNRFaridkot, Punjab
57|--|PKZPipli Pakhi Kalan  18:41 18:25-18:42 18:26-1m--1290.163200mNRFaridkot, Punjab
58|--|GHAGolehwala  18:49 18:33+2118:51 18:35+232m--1297.543201mNRGolehwala, Punjab
59|--|KBUKasu Begu  19:00 18:46+2119:02 18:48+212m--1305.418198mNRKasu Begu, Punjab
60|--|FZRFirozpur Cantt. Junction (5)•  19:35 19:25+2-11316.4-200mNRFirozpur Cantt 152001, Punjab
Scroll to Top
Scroll to Bottom